sat.trackr.live / text

‹ back to catalog

SBIRS GEO-3 (USA 282)

NORAD 43162 · 2018-009A

PAYLOAD ACTIVE UNKNOWN

§ Identity

Operator
Country
US
Launch date
2018-01-20
Launch site
AFETR
Launch vehicle
Mass (kg)
RCS (m²)

Purposes: comms

External: N2YO · Heavens-Above · Gunter

§ Orbital elements

Epoch: 2026-05-25T03:01:06.951360Z

Period
1,436.10 min
Inclination
2.1692°
Eccentricity
0.0002188
Mean motion
1.00271906 rev/d
Perigee alt
35,777.3 km
Apogee alt
35,795.8 km
Semi-major
42,164.7 km
B*
0.0000e+0
RAAN
11.0442°
Arg perigee
43.2415°
Mean anomaly
74.3050°
Rev number
3,061

§ Raw data

SBIRS GEO-3 (USA 282)1 43162U 18009A   26145.12577490  .00000125  00000+0  00000+0 0  99932 43162   2.1692  11.0442 0002188  43.2415  74.3050  1.00271906 30613

JSON: /api/v1/satellites/43162 · /tle

For live sub-satellite position, see the globe view (requires WebGL).

§ Visibility from observer

Set your observer location to see the next 7 days of passes ≥ 10°. The values pass through the URL so the page stays shareable.

No JS? Fill the form by hand. The geolocation button needs JavaScript.